Torna al catalogo

STARLINK-32691

AttivoComunicazioniVLEO
NORAD 62501·PAYLOAD·🇺🇸 United States

Lanciato Jan 6, 2025 da Cape Canaveral Space Force Station

Loading…

Prossimi Passaggi (prossime 24 ore)

TLE

AggiornatoSource: CelesTrak SupGP

Epoca: Sep 15, 2026, 03:43 UTC

1 62501C 25003Q   26258.15534722  .00008918  00000+0  32320-3 0  2582
2 62501  43.0008 298.9329 0001543 258.8955 268.0303 15.27553918    17

Traccia STARLINK-32691 in tempo reale con AllMySat

Download on the App Store